sat.trackr.live / text

‹ back to catalog

STARLINK-1133

NORAD 45064 · 2020-006W

PAYLOAD ACTIVE UNKNOWN

§ Identity

Operator
Country
US
Launch date
2020-01-29
Launch site
AFETR
Launch vehicle
Mass (kg)
RCS (m²)

Purposes: comms

External: N2YO · Heavens-Above · Gunter

§ Orbital elements

Epoch: 2026-09-20T01:14:05.059680Z

Period
93.30 min
Inclination
53.1528°
Eccentricity
0.0000621
Mean motion
15.43449912 rev/d
Perigee alt
435.5 km
Apogee alt
436.4 km
Semi-major
6,814.1 km
B*
8.9904e-4
RAAN
67.2470°
Arg perigee
325.6867°
Mean anomaly
34.4099°
Rev number
36,674

§ Raw data

STARLINK-11331 45064U 20006W   26263.05144745  .00040655  00000+0  89904-3 0  99982 45064  53.1528  67.2470 0000621 325.6867  34.4099 15.43449912366744

JSON: /api/v1/satellites/45064 · /tle

For live sub-satellite position, see the globe view (requires WebGL).

§ Visibility from observer

Set your observer location to see the next 7 days of passes ≥ 10°. The values pass through the URL so the page stays shareable.

No JS? Fill the form by hand. The geolocation button needs JavaScript.